Regional Weather Roundup
Issued by NWS

Home | Current Version | Previous Version | Text Only | Print | Product List | Glossary Off
Versions: 1 2 3 4 5 6 7 8 9 10 11 12 13 14 15 16 17 18 19 20 21 22 23 24 25 26 27 28 29 30 31 32 33 34 35 36 37 38 39 40 41 42 43 44 45 46 47 48 49 50

000
ASUS43 KLSX 040610
RWRMO

WEATHER SUMMARY FOR MISSOURI
NATIONAL WEATHER SERVICE SPRINGFIELD MO
100 AM CDT TUE AUG 04 2015

NOTE: "FAIR" INDICATES FEW OR NO CLOUDS BELOW 12,000 FEET WITH NO
       SIGNIFICANT WEATHER AND/OR OBSTRUCTIONS TO VISIBILITY.
       CURRENT SKY AND/OR WEATHER CONDITIONS ARE NOT AVAILABLE FOR
       CHILLICOTHE AND FARMINGTON.

MOZ001>031-035>038-043-044-053-054-040700-
...NORTHERN AND WESTERN MISSOURI...

CITY           SKY/WX    TMP DP  RH WIND       PRES   REMARKS
KANSAS CTY INT PTCLDY    75  67  76 E8        29.95S
6HR MIN TEMP:  75; 6HR MAX TEMP:  83;

KANSAS C DTWN  CLEAR     78  68  71 VRB3      29.94R
6HR MIN TEMP:  77; 6HR MAX TEMP:  86;

LEE`S SUMMIT   CLEAR     74  68  81 E5        29.96R
6HR MIN TEMP:  74; 6HR MAX TEMP:  85;

ST JOSEPH      PTCLDY    73  68  84 CALM      29.95R
6HR MIN TEMP:  73; 6HR MAX TEMP:  80;

CHILLICOTHE      N/A     74  68  81 NE5       29.96F
6HR MIN TEMP:  73; 6HR MAX TEMP:  80;

KIRKSVILLE     MOCLDY    68  64  87 E3        29.98S
6HR MIN TEMP:  68; 6HR MAX TEMP:  77;


$$
MOZ066>068-077>081-088>096-101>105-040700-
...SOUTHWEST MISSOURI...

CITY           SKY/WX    TMP DP  RH WIND       PRES   REMARKS
SPRINGFIELD    CLEAR     74  67  78 S3        29.97S
6HR MIN TEMP:  74; 6HR MAX TEMP:  89;

JOPLIN         CLEAR     73  66  78 S5        29.96R
6HR MIN TEMP:  73; 6HR MAX TEMP:  89;


$$
MOZ032>034-039>042-045>050-055>058-069>072-040700-
...CENTRAL MISSOURI...

CITY           SKY/WX    TMP DP  RH WIND       PRES   REMARKS
COLUMBIA       MOCLDY    74  69  85 E6        29.95F
6HR MIN TEMP:  74; 6HR MAX TEMP:  86;

JEFFERSON CITY PTCLDY    76  70  82 CALM      29.94S
6HR MIN TEMP:  74; 6HR MAX TEMP:  88;

ROLLA          PTCLDY    75  70  84 S6        29.95S
6HR MIN TEMP:  71; 6HR MAX TEMP:  85;

SEDALIA        PTCLDY    76  70  82 CALM      29.96S
6HR MIN TEMP:  76; 6HR MAX TEMP:  85;

WHITEMAN AFB   PTCLDY    75  70  85 E5        29.93F
WARRENSBURG    PTCLDY    72  68  88 NE6       29.94S
OSAGE BEACH    PTCLDY    75  72  88 CALM      29.95F

$$
MOZ051-052-059>065-040700-
...EAST CENTRAL MISSOURI...

CITY           SKY/WX    TMP DP  RH WIND       PRES   REMARKS
ST LOUIS INTL  MOCLDY    80  66  62 NE3       29.95F
6HR MIN TEMP:  80; 6HR MAX TEMP:  87;

SPIRIT OF STL  MOCLDY    74  73  97 CALM      29.93F
6HR MIN TEMP:  74; 6HR MAX TEMP:  88;

ST CHARLES     CLOUDY    78  66  66 N3        29.94S
6HR MIN TEMP:  77; 6HR MAX TEMP:  86;


$$
MOZ072>076-082>087-097>100-106>115-040700-
...SOUTH CENTRAL AND SOUTHEAST MISSOURI...

CITY           SKY/WX    TMP DP  RH WIND       PRES   REMARKS
CAPE GIRARDEAU CLEAR     75  73  93 CALM      29.92F
6HR MIN TEMP:  74; 6HR MAX TEMP:  90;

FARMINGTON     CLEAR     73  72  94 CALM      30.00S
6HR MIN TEMP:  73; 6HR MAX TEMP:  86;

POPLAR BLUFF   CLEAR     75  74  96 N3        29.91F
6HR MIN TEMP:  75; 6HR MAX TEMP:  91;

WEST PLAINS    CLEAR     73  69  87 CALM      29.99S
6HR MIN TEMP:  72; 6HR MAX TEMP:  88;


$$



USA.gov is the U.S. government's official web portal to all federal, state and local government web resources and services.